Location: Unspecified
(0.0000°N, 0.0000°E)
Time: 02:31:03
(UTC+00:00)

Courier 1B - Visible Passes

Search period start: 05 March 2015 00:00
Search period end: 15 March 2015 00:00
Orbit: 963 x 1209 km, 28.3° (Epoch: 02 March)

Date Brightness Start Highest point End Pass type
(mag) Time Alt. Az. Time Alt. Az. Time Alt. Az.
08 Mar 10.0 21:00:08 10° SSW 21:00:09 10° SSW 21:00:09 10° SSW visible
09 Mar 9.4 20:07:18 10° SSW 20:09:49 15° S 20:09:49 15° S visible
10 Mar 9.5 19:15:01 10° S 19:17:04 12° SSE 19:19:21 10° SE visible
10 Mar 9.9 21:05:46 10° SW 21:06:26 13° SW 21:06:26 13° SW visible
11 Mar 8.9 20:12:30 10° SSW 20:16:11 25° S 20:16:11 25° S visible
12 Mar 8.9 19:19:24 10° SSW 19:24:08 21° SSE 19:26:00 19° SE visible
12 Mar 9.9 21:11:56 10° SW 21:12:55 15° SW 21:12:55 15° SW visible
13 Mar 9.3 18:26:29 10° SSW 18:30:10 16° SSE 18:33:58 10° ESE visible
13 Mar 8.3 20:18:22 10° SW 20:22:48 41° SSW 20:22:48 41° SSW visible
14 Mar 8.1 19:24:55 10° SW 19:30:58 38° SSE 19:32:44 33° ESE visible
14 Mar 10.0 21:18:41 10° WSW 21:19:39 15° WSW 21:19:39 15° WSW visible
